Voltar ao catálogo

ZHEDA PIXING 1C

AtivoCiênciaSSO
NORAD 37167·PAYLOAD·🇨🇳 China

Lançado Sep 22, 2010 de Jiuquan Satellite Launch Center

Loading…

Próximas Passagens (próximas 24 horas)

TLE

AtualizadoSource: Space-Track

Época: Sep 14, 2026, 14:40 UTC

1 37167U 10047C   26257.61149262  .00000634  00000-0  69607-4 0  9994
2 37167  97.9874 240.2520 0019124 357.3871   2.7244 14.91193082863752

Acompanhe ZHEDA PIXING 1C em tempo real com AllMySat

Download on the App Store